Location: Czernica
(51.0462°N, 17.2458°E)
Time: 11:25:38
(UTC+01:00)

ISS - Pass Details

Date: 30 January 2019
Orbit: 403 x 411 km, 51.6° (Epoch: 23 February)

Event Time Altitude Azimuth Distance (km) Brightness Sun altitude
Rises 17:23:14 0° 249° (WSW) 2,329 2.7 -7.4°
Reaches altitude 10° 17:25:18 10° 247° (WSW) 1,471 0.8 -7.7°
Maximum altitude 17:28:36 72° 163° (SSE) 435 -3.7 -8.2°
Enters shadow 17:31:37 12° 79° (E) 1,366 -1.8 -8.6°
